Regional Weather Roundup
Issued by NWS Charleston, SC

Current Version | Previous Version | Text Only | Print | Product List | Glossary On
Versions: 1 2 3 4 5 6 7 8 9 10 11 12 13 14 15 16 17 18 19 20 21 22 23 24 25 26 27 28 29 30 31 32 33 34 35 36 37 38 39 40 41 42 43 44 45 46 47 48 49 50
547 ASUS42 KCHS 200227 RWRCHS REGIONAL WEATHER ROUNDUP NATIONAL WEATHER SERVICE CHARLESTON SC 900 PM EST SUN NOV 19 2017 NOTE: "FAIR" INDICATES FEW OR NO CLOUDS BELOW 12,000 FEET WITH NO SIGNIFICANT WEATHER AND/OR OBSTRUCTIONS TO VISIBILITY. NOT ALL STATIONS ARE QUALITY CONTROLLED. USE DATA WITH CAUTION... ESPECIALLY DEWPOINT OBSERVATIONS. SCZ027-030-031-034>040-042>050-200300- ...SOUTHEAST SOUTH CAROLINA... CITY SKY/WX TMP DP RH WIND PRES REMARKS N CHARLESTON CLEAR 48 38 68 N7 30.03R WATERFRONT PRK NOT AVBL JOHNS ISLAND FAIR 50 41 71 NW7 30.04R PINOPOLIS N/A 57 37 47 N12 29.93R MONCKS CORNER FAIR 43 39 87 CALM 30.04R SUMMERVILLE FAIR 50 36 57 NW3 30.05R BEAUFORT MCAS CLEAR 53 38 56 NW7 30.04R BEAUFORT ARPT FAIR 52 37 58 NW6 30.05R HILTON HEAD IS CLEAR 54 36 50 VRB7 30.06R WALTERBORO CLEAR 45 36 70 NW3 30.06R ALLENDALE FAIR 43 36 75 CALM 30.06R ...SOUTHERN MIDLANDS AND PEE DEE... CITY SKY/WX TMP DP RH WIND PRES REMARKS GEORGETOWN FAIR 43 36 75 CALM 30.03R KINGSTREE FAIR 39 34 81 CALM 30.04R ORANGEBURG CLEAR 49 34 56 CALM 30.05R BARNWELL N/A 46 34 61 CALM 30.07R AIKEN FAIR 41 32 70 NW6 30.09R MANNING FAIR 41 36 81 MISG 30.05R COLUMBIA CLEAR 51 31 46 N6 30.05R SUMTER CLEAR 49 28 44 NW8 30.02R FLORENCE CLEAR 50 30 46 N10 30.04R MYRTLE BEACH CLEAR 52 34 50 N8 30.03R N MYRTLE BEACH CLEAR 46 40 79 CALM 30.01R $$ GAZ063-065-086>088-099>101-113>116-118-119-134>141-150-200300- ...SOUTHEAST GEORGIA... CITY SKY/WX TMP DP RH WIND PRES REMARKS SAVANNAH ARPT CLEAR 50 35 56 NW7 30.06R HUNTER AAF CLEAR 52 35 53 CALM 30.03R FORT STEWART CLEAR 48 35 61 CALM 30.04R STATESBORO CLEAR 49 31 51 NW8 30.08R SYLVANIA CLEAR 45 38 77 NW6 30.08R CLAXTON FAIR 49 36 60 W3 30.07R ...CSRA...CENTRAL AND FAR SOUTHEAST GEORGIA... CITY SKY/WX TMP DP RH WIND PRES REMARKS THOMSON CLEAR 40 34 78 N3 30.13R AUGUSTA-BUSH CLEAR 45 36 70 W10 30.07R AUGUSTA-DANIEL CLEAR 50 30 46 NW8 30.07R SWAINSBORO FAIR 41 36 81 NW3 30.10R VIDALIA CLEAR 48 36 61 NW6 30.08R EASTMAN FAIR 42 32 69 CALM 30.12R HAZLEHURST FAIR 49 28 43 N7 30.08R ALMA CLEAR 44 38 79 CALM 30.07R WAYCROSS CLEAR 49 33 54 N3 30.08R JESUP FAIR 52 36 54 CALM 30.07R BAXLEY FAIR 41 36 81 CALM 30.08R BRUNSWICK CLEAR 46 36 66 CALM 30.08R SAINT SIMONS CLEAR 54 40 59 NW6 30.06R $$ SCZ027-028-034-036>038-045-046-048>050-GAZ119-141-200300- ...LAKE AND SUPPLEMENTAL COASTAL OBSERVATIONS... STATION/POSITION TIME TEMP WIND PRES WAVE SWELL AIR SEA DIR/SP/G HT/PER HT/PER/DIR (UTC) (F) (DEG/KT/KT) (MB) (FT/S) (FT/S/D) WINYAH BAY 0145 50 310/ 2 1016.0R LAKE MURRAY 0220 47 330/ 2/ 5 1017.3 ACE BASIN NERRS 0145 53 300/ 2 1017.0R FORT PULASKI 0200 53 62 330/ 8/ 9 1018.0 SAPELO ISLAND 0200 54 340/ 7 1018.0 $$ ANZ835-935-AMZ111-154-330-350-352-354-370-450-454-472-200300- ...C-MAN AND BUOY OBSERVATIONS... STATION/POSITION TIME TEMP WIND PRES WAVE SWELL AIR SEA DIR/SP/G HT/PER HT/PER/DIR (UTC) (F) (DEG/KT/KT) (MB) (FT/S) (FT/S/D) BUOY 41004 0210 64 73 340/ 17/ 23 1015.7 BUOY 41008 0150 61 68 330/ 19/ 23 1016.6R 3/ 4 FOLLY BEACH CMAN 0200 54 310/ 4/ 7 1017.2R CAPERS NEARSHORE 0208 55 62 330/ 12/ 16 1016.4R FRIPP NEARSHORE 0208 55 62 300/ 14/ 23 1017.0R STATION/POSITION TIME TEMP WIND PRES WAVE SWELL AIR SEA DIR/SP/G HT/PER HT/PER/DIR (UTC) (F) (DEG/KT/KT) (MB) (FT/S) (FT/S/D) 5E ST. MARYS GA 0200 68 N/A 3/ 4 FRYING PAN BUOY 0210 61 71 330/ 21/ 27 1015.2 BUOY 41025 0210 59 67 320/ 21/ 29 1013.8 CAPE LOOKOUT NC 0200 320/ 15/ 18 1015.1R BUOY 41002 0150 71 77 320/ 21/ 25 1011.2R 10/ 8 BUOY 41010 NOT AVBL ST AUGUSTINE FL 0200 60 69 340/ 14/ 17 1017.4R $$

USA.gov is the U.S. government's official web portal to all federal, state and local government web resources and services.